QPF
0.00 0.00 0.00 0.00 0.00 0.00 0.00 0.00 0.00 0.00 0.00 0.00 0.00 0.00 0.00 0.00 0.00 0.00 0.00 0.00 0.00 0.00 0.00 0.00 0.00 0.00 0.00 0.00 0.00 0.00 0.00 0.00 0.00 0.00 0.00 0.00 0.00 0.00 0.00 0.00 0.00 0.00 0.00
0.00 0.00 0.00 0.00 0.00 0.00 0.00 0.00 0.00 0.00 0.00 0.00 0.00 0.00 0.00 0.00 0.00 0.00 0.00 0.00 0.00 0.00 0.00 0.00 0.00 0.00 0.00 0.00 0.00 0.00 0.00 0.00 0.00 0.00 0.00 0.00 0.00 0.00 0.00 0.00 0.00 0.00 0.00
0.00 0.00 0.00 0.00 0.00 0.00 0.00 0.00 0.00 0.00 0.00 0.00 0.00 0.00 0.00 0.00 0.00 0.00 0.00 0.00 0.00 0.00 0.00 0.00 0.00 0.00 0.00 0.00 0.00 0.00 0.00 0.00 0.00 0.00 0.00 0.00 0.00 0.00 0.00 0.00 0.00 0.00 0.00
0.00 0.00 0.00 0.00 0.00 0.00 0.00 0.00 0.00 0.00 0.00 0.00 0.00 0.00 0.00 0.00 0.00 0.00 0.00 0.00 0.00 0.00 0.00 0.00 0.00 0.00 0.00 0.00 0.00 0.00 0.00 0.00 0.00 0.00 0.00 0.00 0.00 0.00 0.00 0.00 0.00 0.00 0.00
0.00 0.00 0.00 0.00 0.00 0.00 0.00 0.00 0.00 0.00 0.00 0.00 0.00 0.00 0.00 0.00 0.00 0.00 0.00 0.00 0.00 0.00 0.00 0.00 0.00 0.00 0.00 0.00 0.00 0.00 0.00 0.00 0.00 0.00 0.00 0.00 0.00 0.00 0.00 0.00 0.00 0.00 0.00
0.00 0.00 0.00 0.00 0.00 0.00 0.00 0.00 0.00 0.00 0.00 0.00 0.00 0.00 0.00 0.00 0.00 0.00 0.00 0.00 0.00 0.00 0.00 0.00 0.00 0.00 0.00 0.00 0.00 0.00 0.00 0.00 0.00 0.00 0.00 0.00 0.00 0.00 0.00 0.00 0.00 0.00 0.00
0.00 0.00 0.00 0.00 0.00 0.00 0.00 0.00 0.00 0.00 0.00 0.00 0.00 0.00 0.00 0.00 0.00 0.00 0.00 0.00 0.00 0.00 0.00 0.00 0.00 0.00 0.00 0.00 0.00 0.00 0.00 0.00 0.00 0.00 0.00 0.00 0.00 0.00 0.00 0.00 0.00 0.00 0.00
0.00 0.00 0.00 0.00 0.00 0.00 0.00 0.00 0.00 0.00 0.00 0.00 0.00 0.00 0.00 0.00 0.00 0.00 0.00 0.00 0.00 0.00 0.00 0.00 0.00 0.00 0.00 0.00 0.00 0.00 0.00 0.00 0.00 0.00 0.00 0.00 0.00 0.00 0.00 0.00 0.00 0.00 0.00
0.00 0.00 0.00 0.00 0.00 0.00 0.00 0.00 0.00 0.00 0.00 0.00 0.00 0.00 0.00 0.00 0.00 0.00 0.00 0.00 0.00 0.00 0.00 0.00 0.00 0.00 0.00 0.00 0.00 0.01 0.01 0.00 0.00 0.00 0.00 0.00 0.00 0.00 0.00 0.00 0.00 0.00 0.00
0.00 0.00 0.00 0.00 0.00 0.01 0.00 0.00 0.00 0.00 0.00 0.00 0.00 0.00 0.00 0.00 0.00 0.00 0.00 0.00 0.00 0.00 0.00 0.00 0.00 0.00 0.00 0.01 0.01 0.02 0.02 0.02 0.01 0.01 0.01 0.01 0.00 0.00 0.00 0.00 0.00 0.00 0.00
0.00 0.00 0.00 0.00 0.00 0.00 0.00 0.00 0.00 0.00 0.00 0.00 0.00 0.00 0.00 0.00 0.00 0.00 0.00 0.01 0.01 0.00 0.00 0.00 0.00 0.01 0.01 0.01 0.02 0.02 0.02 0.02 0.03 0.03 0.03 0.02 0.01 0.01 0.00 0.00 0.00 0.00 0.00
0.00 0.00 0.00 0.00 0.00 0.00 0.00 0.00 0.00 0.00 0.00 0.00 0.00 0.00 0.00 0.00 0.00 0.00 0.00 0.01 0.01 0.01 0.01 0.01 0.01 0.01 0.01 0.02 0.03 0.03 0.02 0.04 0.04 0.04 0.03 0.02 0.01 0.00 0.00 0.00 0.00 0.00 0.00
0.00 0.00 0.00 0.00 0.00 0.00 0.00 0.00 0.00 0.00 0.00 0.00 0.00 0.00 0.00 0.00 0.00 0.01 0.01 0.02 0.02 0.02 0.01 0.01 0.02 0.02 0.03 0.04 0.04 0.03 0.04 0.05 0.03 0.03 0.02 0.01 0.01 0.00 0.00 0.00 0.00 0.00 0.00
0.00 0.00 0.00 0.00 0.00 0.00 0.00 0.00 0.00 0.00 0.01 0.01 0.01 0.01 0.01 0.01 0.01 0.01 0.02 0.05 0.07 0.06 0.04 0.03 0.04 0.06 0.09 0.10 0.09 0.08 0.06 0.04 0.02 0.02 0.01 0.01 0.01 0.00 0.00 0.00 0.00 0.00 0.00
0.00 0.00 0.00 0.00 0.00 0.00 0.00 0.00 0.00 0.00 0.00 0.01 0.01 0.02 0.02 0.02 0.02 0.03 0.05 0.07 0.09 0.09 0.07 0.07 0.09 0.12 0.15 0.15 0.15 0.13 0.08 0.05 0.03 0.02 0.02 0.02 0.01 0.00 0.00 0.00 0.00 0.00 0.00
0.00 0.00 0.00 0.00 0.00 0.00 0.00 0.00 0.00 0.00 0.01 0.01 0.02 0.03 0.03 0.02 0.04 0.08 0.10 0.11 0.12 0.11 0.13 0.16 0.16 0.14 0.12 0.09 0.10 0.09 0.06 0.06 0.05 0.04 0.03 0.02 0.01 0.01 0.01 0.00 0.00 0.00 0.00
0.00 0.00 0.00 0.00 0.00 0.00 0.00 0.01 0.01 0.00 0.00 0.01 0.02 0.04 0.04 0.04 0.06 0.10 0.14 0.19 0.20 0.17 0.14 0.14 0.14 0.14 0.12 0.10 0.09 0.09 0.08 0.08 0.09 0.08 0.06 0.04 0.03 0.02 0.01 0.01 0.01 0.00 0.00
0.00 0.00 0.01 0.01 0.01 0.01 0.01 0.01 0.01 0.01 0.01 0.01 0.01 0.02 0.04 0.06 0.07 0.11 0.17 0.28 0.30 0.22 0.11 0.09 0.11 0.13 0.14 0.13 0.14 0.14 0.14 0.14 0.14 0.12 0.09 0.06 0.04 0.03 0.02 0.02 0.01 0.01 0.00
0.01 0.01 0.01 0.01 0.01 0.01 0.01 0.01 0.02 0.02 0.01 0.01 0.01 0.02 0.03 0.05 0.08 0.10 0.16 0.27 0.21 0.14 0.08 0.06 0.11 0.17 0.18 0.16 0.16 0.16 0.15 0.14 0.12 0.10 0.08 0.06 0.04 0.02 0.01 0.01 0.00 0.00 0.00
0.01 0.01 0.01 0.02 0.02 0.01 0.01 0.02 0.02 0.02 0.02 0.01 0.02 0.02 0.04 0.08 0.10 0.09 0.12 0.16 0.20 0.15 0.07 0.07 0.14 0.21 0.21 0.17 0.14 0.13 0.12 0.11 0.09 0.07 0.05 0.03 0.02 0.01 0.00 0.00 0.00 0.00 0.00
0.01 0.01 0.01 0.02 0.02 0.02 0.02 0.02 0.02 0.02 0.02 0.02 0.02 0.02 0.04 0.08 0.07 0.06 0.09 0.14 0.18 0.14 0.08 0.08 0.14 0.19 0.18 0.15 0.12 0.10 0.08 0.07 0.06 0.04 0.03 0.01 0.01 0.00 0.00 0.00 0.00 0.00 0.00
0.02 0.02 0.02 0.02 0.02 0.02 0.02 0.02 0.02 0.03 0.02 0.02 0.02 0.02 0.05 0.10 0.09 0.09 0.10 0.11 0.11 0.10 0.09 0.09 0.12 0.13 0.11 0.09 0.08 0.07 0.06 0.05 0.03 0.02 0.01 0.01 0.00 0.00 0.00 0.00 0.00 0.00 0.00
0.02 0.02 0.02 0.02 0.02 0.03 0.03 0.03 0.03 0.03 0.03 0.03 0.03 0.04 0.07 0.08 0.07 0.07 0.07 0.08 0.09 0.11 0.12 0.12 0.10 0.09 0.08 0.07 0.06 0.05 0.04 0.03 0.02 0.01 0.01 0.00 0.00 0.00 0.00 0.00 0.00 0.00 0.00
0.01 0.02 0.02 0.02 0.02 0.02 0.03 0.03 0.03 0.03 0.04 0.04 0.04 0.05 0.06 0.06 0.07 0.08 0.09 0.10 0.10 0.10 0.10 0.09 0.07 0.06 0.05 0.04 0.04 0.03 0.02 0.01 0.01 0.00 0.00 0.00 0.00 0.00 0.00 0.00 0.00 0.00 0.00
0.01 0.02 0.02 0.02 0.02 0.02 0.03 0.03 0.03 0.03 0.04 0.04 0.05 0.06 0.07 0.08 0.08 0.07 0.07 0.07 0.07 0.07 0.06 0.05 0.04 0.03 0.02 0.02 0.01 0.01 0.01 0.00 0.00 0.00 0.00 0.00 0.00 0.00 0.00 0.00 0.00 0.00 0.00
0.01 0.01 0.01 0.02 0.02 0.02 0.02 0.03 0.03 0.03 0.04 0.04 0.04 0.05 0.06 0.06 0.07 0.06 0.05 0.05 0.06 0.05 0.04 0.03 0.02 0.01 0.01 0.00 0.00 0.00 0.00 0.00 0.00 0.00 0.00 0.00 0.00 0.00 0.00 0.00 0.01 0.01 0.00
MSLP
1015.20 1014.83 1014.39 1013.89 1013.39 1012.90 1012.47 1012.14 1011.90 1011.76 1011.71 1011.72 1011.79 1011.88 1011.99 1012.13 1012.28 1012.46 1012.66 1012.89 1013.14 1013.40 1013.67 1013.93 1014.20 1014.49 1014.81 1015.20 1015.66 1016.21 1016.86 1017.60 1018.40 1019.24 1020.07 1020.86 1021.56 1022.17 1022.65 1023.00 1023.22 1023.32 1023.31
1015.72 1015.33 1014.87 1014.35 1013.81 1013.28 1012.80 1012.39 1012.08 1011.85 1011.69 1011.59 1011.54 1011.52 1011.53 1011.58 1011.66 1011.78 1011.96 1012.17 1012.42 1012.69 1012.97 1013.26 1013.55 1013.86 1014.20 1014.59 1015.05 1015.60 1016.25 1016.97 1017.76 1018.59 1019.40 1020.18 1020.88 1021.48 1021.96 1022.32 1022.56 1022.67 1022.68
1016.16 1015.78 1015.32 1014.79 1014.24 1013.69 1013.17 1012.72 1012.33 1012.01 1011.75 1011.53 1011.35 1011.20 1011.09 1011.03 1011.01 1011.06 1011.17 1011.35 1011.57 1011.83 1012.11 1012.41 1012.72 1013.05 1013.40 1013.82 1014.30 1014.87 1015.52 1016.24 1017.03 1017.84 1018.64 1019.40 1020.08 1020.67 1021.15 1021.51 1021.76 1021.91 1021.95
1016.50 1016.13 1015.68 1015.16 1014.61 1014.05 1013.52 1013.02 1012.57 1012.17 1011.80 1011.47 1011.16 1010.88 1010.64 1010.45 1010.32 1010.27 1010.30 1010.41 1010.59 1010.82 1011.09 1011.39 1011.70 1012.05 1012.44 1012.88 1013.40 1013.99 1014.66 1015.40 1016.19 1016.99 1017.78 1018.52 1019.19 1019.76 1020.23 1020.60 1020.87 1021.05 1021.14
1016.67 1016.31 1015.88 1015.38 1014.84 1014.29 1013.75 1013.23 1012.73 1012.25 1011.79 1011.34 1010.90 1010.49 1010.11 1009.80 1009.55 1009.40 1009.35 1009.38 1009.50 1009.69 1009.93 1010.22 1010.55 1010.91 1011.33 1011.82 1012.37 1013.01 1013.71 1014.47 1015.27 1016.08 1016.86 1017.58 1018.23 1018.79 1019.26 1019.64 1019.93 1020.15 1020.30
1016.66 1016.31 1015.89 1015.41 1014.89 1014.35 1013.80 1013.26 1012.72 1012.17 1011.62 1011.07 1010.51 1009.98 1009.48 1009.04 1008.69 1008.44 1008.29 1008.26 1008.32 1008.47 1008.69 1008.97 1009.31 1009.70 1010.16 1010.68 1011.28 1011.96 1012.70 1013.50 1014.31 1015.12 1015.90 1016.62 1017.26 1017.82 1018.29 1018.68 1019.01 1019.28 1019.50
1016.49 1016.14 1015.73 1015.26 1014.75 1014.22 1013.67 1013.10 1012.52 1011.91 1011.28 1010.62 1009.96 1009.31 1008.70 1008.15 1007.70 1007.37 1007.15 1007.06 1007.08 1007.20 1007.41 1007.70 1008.05 1008.48 1008.97 1009.54 1010.19 1010.91 1011.69 1012.51 1013.35 1014.17 1014.96 1015.68 1016.32 1016.89 1017.38 1017.81 1018.17 1018.50 1018.78
1016.22 1015.86 1015.44 1014.97 1014.47 1013.93 1013.37 1012.77 1012.14 1011.46 1010.74 1009.99 1009.22 1008.47 1007.76 1007.12 1006.60 1006.20 1005.93 1005.80 1005.81 1005.93 1006.15 1006.45 1006.84 1007.30 1007.84 1008.46 1009.15 1009.90 1010.72 1011.56 1012.42 1013.25 1014.05 1014.79 1015.45 1016.05 1016.58 1017.05 1017.48 1017.87 1018.22
1015.94 1015.56 1015.12 1014.63 1014.11 1013.56 1012.96 1012.32 1011.63 1010.87 1010.06 1009.21 1008.34 1007.49 1006.68 1005.98 1005.39 1004.94 1004.65 1004.52 1004.53 1004.67 1004.92 1005.27 1005.70 1006.20 1006.79 1007.44 1008.17 1008.96 1009.79 1010.65 1011.52 1012.38 1013.20 1013.97 1014.67 1015.32 1015.91 1016.46 1016.95 1017.41 1017.83
1015.72 1015.30 1014.82 1014.31 1013.76 1013.17 1012.53 1011.83 1011.06 1010.21 1009.30 1008.34 1007.36 1006.41 1005.52 1004.75 1004.11 1003.64 1003.34 1003.22 1003.26 1003.44 1003.74 1004.15 1004.63 1005.19 1005.82 1006.51 1007.26 1008.06 1008.91 1009.78 1010.66 1011.54 1012.39 1013.21 1013.98 1014.70 1015.37 1016.00 1016.58 1017.12 1017.60
1015.60 1015.12 1014.61 1014.05 1013.46 1012.82 1012.12 1011.34 1010.47 1009.52 1008.50 1007.43 1006.34 1005.29 1004.32 1003.48 1002.80 1002.31 1002.02 1001.92 1002.01 1002.25 1002.62 1003.08 1003.63 1004.25 1004.91 1005.63 1006.40 1007.21 1008.05 1008.93 1009.82 1010.72 1011.62 1012.49 1013.34 1014.15 1014.93 1015.66 1016.33 1016.95 1017.49
1015.55 1015.02 1014.45 1013.85 1013.20 1012.50 1011.72 1010.86 1009.90 1008.84 1007.70 1006.52 1005.32 1004.17 1003.12 1002.21 1001.50 1000.99 1000.71 1000.65 1000.78 1001.08 1001.52 1002.06 1002.67 1003.33 1004.04 1004.78 1005.56 1006.36 1007.21 1008.08 1008.99 1009.91 1010.86 1011.80 1012.74 1013.65 1014.53 1015.37 1016.14 1016.83 1017.42
1015.52 1014.92 1014.29 1013.63 1012.92 1012.15 1011.30 1010.35 1009.30 1008.14 1006.89 1005.60 1004.30 1003.06 1001.93 1000.97 1000.22 999.70 999.43 999.39 999.58 999.94 1000.44 1001.04 1001.71 1002.42 1003.16 1003.93 1004.71 1005.52 1006.36 1007.23 1008.15 1009.11 1010.10 1011.11 1012.14 1013.16 1014.15 1015.09 1015.95 1016.71 1017.34
1015.39 1014.72 1014.03 1013.31 1012.54 1011.70 1010.78 1009.76 1008.61 1007.36 1006.03 1004.65 1003.27 1001.95 1000.76 999.75 998.97 998.44 998.17 998.16 998.38 998.79 999.35 1000.00 1000.73 1001.49 1002.27 1003.05 1003.85 1004.66 1005.51 1006.39 1007.33 1008.32 1009.36 1010.44 1011.55 1012.66 1013.75 1014.77 1015.71 1016.52 1017.18
1015.06 1014.32 1013.56 1012.78 1011.95 1011.05 1010.07 1008.98 1007.78 1006.47 1005.07 1003.63 1002.20 1000.83 999.60 998.56 997.75 997.21 996.95 996.95 997.20 997.64 998.24 998.95 999.72 1000.52 1001.34 1002.16 1002.98 1003.82 1004.68 1005.59 1006.55 1007.57 1008.66 1009.81 1010.99 1012.17 1013.32 1014.41 1015.40 1016.24 1016.91
1014.44 1013.63 1012.80 1011.96 1011.08 1010.13 1009.10 1007.97 1006.73 1005.39 1003.97 1002.50 1001.05 999.67 998.43 997.38 996.57 996.03 995.76 995.78 996.04 996.51 997.14 997.89 998.70 999.56 1000.42 1001.28 1002.15 1003.02 1003.92 1004.86 1005.86 1006.92 1008.06 1009.24 1010.47 1011.69 1012.89 1014.01 1015.01 1015.87 1016.53
1013.55 1012.66 1011.77 1010.86 1009.93 1008.94 1007.88 1006.73 1005.47 1004.13 1002.72 1001.28 999.85 998.50 997.28 996.25 995.45 994.91 994.66 994.68 994.95 995.44 996.09 996.87 997.73 998.63 999.55 1000.47 1001.40 1002.33 1003.28 1004.27 1005.32 1006.42 1007.58 1008.80 1010.04 1011.28 1012.48 1013.59 1014.59 1015.43 1016.07
1012.44 1011.48 1010.52 1009.56 1008.57 1007.55 1006.47 1005.31 1004.07 1002.76 1001.39 1000.00 998.64 997.35 996.18 995.20 994.44 993.93 993.69 993.72 994.00 994.50 995.17 995.98 996.88 997.83 998.81 999.80 1000.79 1001.79 1002.81 1003.86 1004.95 1006.09 1007.27 1008.49 1009.73 1010.95 1012.12 1013.20 1014.16 1014.96 1015.57
1011.25 1010.22 1009.19 1008.17 1007.14 1006.08 1004.99 1003.84 1002.63 1001.37 1000.08 998.78 997.51 996.31 995.24 994.33 993.63 993.16 992.95 992.99 993.28 993.79 994.47 995.30 996.23 997.23 998.27 999.33 1000.40 1001.47 1002.56 1003.66 1004.79 1005.95 1007.14 1008.34 1009.55 1010.72 1011.84 1012.86 1013.76 1014.50 1015.06
1010.11 1009.02 1007.94 1006.87 1005.79 1004.71 1003.60 1002.47 1001.31 1000.12 998.92 997.73 996.58 995.51 994.55 993.74 993.11 992.71 992.54 992.60 992.90 993.41 994.10 994.94 995.90 996.93 998.02 999.14 1000.27 1001.40 1002.54 1003.69 1004.84 1006.01 1007.18 1008.34 1009.49 1010.59 1011.63 1012.57 1013.39 1014.06 1014.56
1009.18 1008.05 1006.92 1005.81 1004.70 1003.59 1002.48 1001.38 1000.27 999.17 998.07 997.01 995.99 995.05 994.23 993.53 993.01 992.67 992.55 992.64 992.95 993.46 994.15 994.98 995.94 996.99 998.11 999.26 1000.42 1001.59 1002.76 1003.92 1005.08 1006.22 1007.35 1008.45 1009.52 1010.53 1011.47 1012.32 1013.05 1013.64 1014.08
1008.56 1007.41 1006.26 1005.11 1003.98 1002.86 1001.77 1000.69 999.65 998.63 997.65 996.72 995.85 995.06 994.37 993.80 993.38 993.12 993.05 993.17 993.49 993.99 994.66 995.47 996.41 997.45 998.55 999.70 1000.86 1002.03 1003.18 1004.32 1005.44 1006.53 1007.59 1008.61 1009.58 1010.49 1011.33 1012.07 1012.71 1013.23 1013.61
1008.33 1007.18 1006.02 1004.86 1003.73 1002.62 1001.54 1000.52 999.54 998.62 997.75 996.95 996.23 995.58 995.03 994.58 994.27 994.09 994.07 994.21 994.53 995.01 995.64 996.41 997.30 998.28 999.34 1000.43 1001.54 1002.65 1003.75 1004.83 1005.87 1006.87 1007.84 1008.76 1009.62 1010.42 1011.15 1011.80 1012.35 1012.79 1013.11
1008.46 1007.33 1006.19 1005.05 1003.93 1002.85 1001.82 1000.85 999.95 999.13 998.38 997.70 997.11 996.60 996.18 995.85 995.62 995.52 995.53 995.69 995.99 996.44 997.02 997.72 998.52 999.42 1000.37 1001.37 1002.38 1003.40 1004.39 1005.35 1006.29 1007.18 1008.03 1008.83 1009.58 1010.27 1010.90 1011.45 1011.92 1012.30 1012.57
1008.89 1007.81 1006.72 1005.62 1004.55 1003.52 1002.54 1001.65 1000.83 1000.10 999.46 998.91 998.43 998.04 997.72 997.49 997.34 997.28 997.33 997.48 997.76 998.15 998.65 999.26 999.96 1000.73 1001.55 1002.41 1003.29 1004.16 1005.01 1005.83 1006.63 1007.38 1008.10 1008.78 1009.41 1010.00 1010.54 1011.02 1011.43 1011.75 1011.98
1009.53 1008.52 1007.50 1006.47 1005.47 1004.51 1003.62 1002.80 1002.08 1001.44 1000.90 1000.44 1000.06 999.76 999.53 999.36 999.26 999.23 999.29 999.43 999.66 999.98 1000.39 1000.88 1001.45 1002.08 1002.75 1003.45 1004.15 1004.85 1005.54 1006.20 1006.83 1007.44 1008.02 1008.58 1009.11 1009.60 1010.07 1010.48 1010.84 1011.13 1011.34
Thickness
5498 5500 5501 5504 5506 5509 5512 5515 5518 5521 5523 5524 5525 5527 5527 5525 5522 5521 5526 5529 5528 5526 5523 5521 5521 5518 5518 5516 5512 5510 5507 5507 5502 5491 5484 5478 5474 5472 5469 5468 5468 5469 5471
5473 5476 5478 5481 5485 5488 5490 5493 5496 5501 5505 5507 5508 5511 5512 5512 5511 5511 5514 5517 5519 5519 5517 5512 5511 5506 5506 5505 5502 5499 5496 5491 5489 5477 5470 5465 5462 5461 5458 5456 5456 5457 5460
5446 5451 5456 5459 5462 5466 5469 5472 5475 5479 5484 5487 5490 5493 5495 5497 5498 5500 5501 5504 5506 5508 5509 5507 5503 5495 5493 5493 5491 5490 5486 5476 5473 5468 5460 5453 5449 5447 5445 5443 5442 5444 5447
5419 5424 5429 5433 5437 5441 5445 5449 5453 5457 5462 5466 5470 5474 5477 5481 5484 5485 5485 5489 5492 5493 5495 5497 5496 5492 5487 5481 5477 5478 5475 5464 5457 5455 5449 5442 5440 5437 5434 5433 5432 5433 5436
5394 5399 5403 5407 5410 5414 5419 5424 5428 5432 5438 5445 5451 5456 5460 5464 5468 5468 5469 5472 5476 5478 5481 5484 5485 5484 5480 5473 5469 5467 5463 5457 5448 5444 5439 5433 5432 5429 5428 5427 5426 5424 5425
5368 5372 5376 5380 5384 5388 5392 5397 5402 5407 5413 5419 5426 5435 5442 5447 5450 5451 5454 5456 5458 5463 5469 5473 5473 5470 5467 5462 5458 5457 5457 5453 5447 5440 5434 5429 5428 5426 5423 5420 5417 5414 5417
5341 5344 5348 5352 5357 5360 5364 5370 5376 5383 5388 5393 5401 5409 5419 5427 5430 5434 5437 5440 5444 5449 5455 5458 5461 5461 5455 5449 5444 5440 5440 5442 5442 5439 5434 5430 5423 5420 5416 5412 5407 5404 5404
5317 5318 5320 5322 5325 5328 5333 5340 5348 5356 5363 5371 5378 5385 5395 5406 5412 5418 5421 5424 5431 5437 5441 5444 5447 5448 5445 5439 5431 5427 5426 5426 5426 5419 5418 5415 5412 5408 5405 5402 5395 5388 5383
5289 5290 5291 5290 5290 5293 5297 5307 5317 5326 5337 5347 5355 5364 5374 5388 5394 5400 5403 5409 5420 5427 5428 5428 5430 5433 5434 5424 5416 5415 5411 5409 5405 5400 5394 5392 5391 5389 5384 5378 5374 5368 5365
5262 5262 5261 5258 5257 5259 5264 5271 5281 5291 5307 5321 5335 5346 5356 5370 5378 5383 5386 5392 5405 5416 5416 5414 5415 5418 5416 5409 5406 5404 5401 5399 5391 5384 5376 5372 5371 5369 5365 5358 5355 5353 5353
5233 5232 5231 5229 5227 5229 5232 5239 5246 5256 5272 5290 5309 5327 5338 5350 5360 5365 5370 5375 5386 5394 5399 5402 5402 5400 5396 5392 5389 5388 5389 5381 5374 5368 5361 5357 5355 5354 5349 5341 5337 5336 5337
5200 5199 5198 5197 5197 5199 5202 5209 5214 5222 5236 5258 5279 5301 5320 5332 5339 5347 5354 5360 5366 5372 5382 5384 5383 5381 5378 5375 5373 5372 5365 5359 5354 5351 5349 5347 5344 5339 5331 5323 5319 5317 5317
5168 5166 5164 5164 5165 5167 5171 5179 5186 5195 5207 5229 5250 5274 5298 5311 5320 5328 5335 5341 5347 5353 5362 5364 5364 5363 5359 5357 5357 5353 5346 5344 5341 5340 5340 5335 5330 5322 5312 5305 5301 5298 5295
5137 5137 5135 5134 5137 5139 5142 5148 5156 5167 5179 5197 5219 5243 5266 5282 5296 5305 5310 5317 5325 5333 5341 5345 5347 5345 5342 5341 5339 5336 5332 5331 5328 5327 5323 5317 5309 5300 5294 5290 5285 5280 5276
5114 5113 5112 5112 5113 5117 5121 5125 5131 5142 5149 5163 5185 5207 5231 5256 5276 5279 5283 5295 5306 5316 5325 5328 5330 5329 5326 5326 5324 5321 5316 5312 5308 5305 5301 5297 5289 5281 5276 5272 5267 5261 5257
5097 5096 5094 5096 5098 5101 5107 5114 5118 5124 5135 5145 5161 5178 5201 5226 5242 5253 5266 5276 5284 5294 5306 5317 5320 5317 5314 5314 5313 5309 5303 5297 5292 5286 5281 5277 5272 5266 5259 5253 5246 5242 5239
5082 5080 5079 5081 5085 5089 5095 5101 5110 5115 5121 5133 5147 5164 5184 5206 5221 5234 5246 5256 5264 5273 5287 5302 5306 5304 5300 5298 5296 5292 5288 5282 5274 5269 5265 5260 5255 5249 5242 5234 5228 5222 5217
5075 5074 5073 5074 5076 5080 5084 5089 5095 5103 5112 5123 5137 5154 5174 5193 5208 5220 5229 5237 5248 5259 5274 5284 5288 5287 5284 5281 5276 5270 5266 5260 5255 5251 5247 5242 5236 5230 5223 5216 5210 5205 5200
5075 5076 5075 5073 5073 5075 5078 5082 5087 5093 5101 5112 5124 5143 5162 5178 5191 5205 5216 5225 5237 5247 5257 5262 5266 5267 5265 5261 5256 5250 5244 5240 5236 5231 5226 5221 5216 5210 5205 5199 5194 5188 5181
5080 5078 5076 5074 5073 5074 5076 5079 5084 5089 5096 5105 5118 5136 5153 5166 5178 5195 5209 5215 5221 5231 5239 5243 5246 5246 5241 5235 5230 5227 5223 5220 5215 5212 5207 5202 5197 5193 5189 5183 5178 5173 5167
5083 5083 5080 5079 5080 5082 5084 5085 5086 5089 5095 5105 5120 5135 5147 5158 5170 5184 5197 5201 5205 5213 5219 5223 5224 5220 5214 5208 5205 5204 5202 5201 5197 5193 5188 5182 5178 5175 5171 5166 5160 5154 5149
5085 5085 5085 5086 5089 5093 5096 5097 5095 5096 5101 5109 5122 5133 5143 5151 5164 5175 5180 5182 5185 5189 5194 5198 5197 5192 5189 5188 5187 5186 5184 5182 5180 5176 5171 5164 5159 5155 5150 5146 5141 5137 5130
5086 5087 5088 5090 5093 5097 5101 5104 5104 5104 5107 5112 5118 5125 5132 5137 5143 5150 5155 5159 5162 5165 5167 5169 5170 5168 5168 5169 5169 5168 5168 5167 5164 5161 5155 5147 5141 5136 5132 5128 5123 5117 5115
5087 5088 5089 5090 5091 5094 5096 5098 5100 5101 5102 5104 5106 5110 5115 5119 5124 5129 5134 5138 5141 5144 5145 5147 5149 5151 5152 5151 5150 5149 5148 5147 5144 5140 5137 5131 5125 5120 5115 5111 5107 5105 5102
5086 5087 5087 5088 5088 5089 5091 5093 5094 5096 5098 5100 5102 5104 5107 5110 5113 5116 5120 5123 5125 5127 5127 5129 5130 5131 5133 5133 5133 5132 5131 5129 5125 5121 5117 5114 5109 5104 5100 5096 5094 5091 5091
5083 5083 5084 5084 5085 5085 5086 5086 5087 5088 5090 5092 5095 5098 5100 5102 5104 5106 5108 5110 5111 5112 5112 5113 5113 5114 5114 5114 5114 5114 5113 5111 5108 5105 5102 5098 5094 5090 5086 5084 5082 5082 5083